Terug naar catalogus

EMISAT

ActiefMilitairSSO
NORAD 44078·PAYLOAD·🇮🇳 India

Gelanceerd Apr 1, 2019 vanaf Satish Dhawan Space Centre

Loading…

Volgende Passages (komende 24 uur)

TLE

VersSource: Space-Track

Epoch: Sep 14, 2026, 14:55 UTC

1 44078U 19018A   26257.62183160  .00000105  00000-0  43972-4 0  9996
2 44078  98.4561 315.8888 0017441 311.3417  48.6272 14.43668617392960

Volg EMISAT in realtime met AllMySat

Download on the App Store